When you browse on this site, cookies collect data to enhance your experience and personalize the content and advertising you see.
Visit our Privacy Policy to learn more. By continuing to use the site, you agree to this use of cookies and data.

Hourly Weather Ben-Gurion

Today, 13 August, Thursday

Time Temperature Precipitation Wind Pressure Humidity
00:00 +26°C° 0 mm 1 mps 751 mmHg 85%
01:00 +26°C° 0 mm 1 mps 751 mmHg 85%
02:00 +26°C° 0 mm 2 mps 750 mmHg 85%
03:00 +26°C° 0 mm 2 mps 751 mmHg 85%
04:00 +26°C° 0 mm 2 mps 751 mmHg 85%
05:00 +26°C° 0 mm 2 mps 751 mmHg 86%
06:00 +27°C° 0 mm 2 mps 751 mmHg 79%
07:00 +28°C° 0 mm 2 mps 751 mmHg 73%
08:00 +30°C° 0 mm 2 mps 751 mmHg 68%
09:00 +31°C° 0 mm 3 mps 751 mmHg 61%
10:00 +33°C° 0 mm 3 mps 751 mmHg 55%
11:00 +35°C° 0 mm 4 mps 750 mmHg 49%
12:00 +35°C° 0 mm 5 mps 750 mmHg 49%
13:00 +35°C° 0 mm 5 mps 749 mmHg 49%
14:00 +35°C° 0 mm 5 mps 749 mmHg 49%
15:00 +34°C° 0 mm 5 mps 749 mmHg 53%
16:00 +33°C° 0 mm 5 mps 749 mmHg 57%
17:00 +32°C° 0 mm 5 mps 749 mmHg 61%
18:00 +30°C° 0 mm 4 mps 749 mmHg 68%
19:00 +29°C° 0 mm 3 mps 749 mmHg 76%
20:00 +27°C° 0 mm 2 mps 750 mmHg 83%
21:00 +27°C° 0 mm 1 mps 750 mmHg 84%
22:00 +26°C° 0 mm 1 mps 750 mmHg 85%
23:00 +26°C° 0 mm 1 mps 750 mmHg 85%

Tomorrow, 14 August, Friday

Time Temperature Precipitation Wind Pressure Humidity
00:00 +26°C° 0 mm 1 mps 749 mmHg 86%
01:00 +26°C° 0 mm 1 mps 749 mmHg 86%
02:00 +25°C° 0 mm 1 mps 749 mmHg 86%
03:00 +25°C° 0 mm 1 mps 749 mmHg 87%
04:00 +25°C° 0 mm 2 mps 749 mmHg 87%
05:00 +25°C° 0 mm 2 mps 749 mmHg 88%
06:00 +27°C° 0 mm 2 mps 749 mmHg 80%
07:00 +28°C° 0 mm 2 mps 749 mmHg 73%
08:00 +30°C° 0 mm 2 mps 749 mmHg 65%
09:00 +31°C° 0 mm 3 mps 749 mmHg 58%
10:00 +34°C° 0 mm 4 mps 749 mmHg 52%
11:00 +35°C° 0 mm 5 mps 749 mmHg 45%
12:00 +35°C° 0 mm 5 mps 749 mmHg 46%
13:00 +35°C° 0 mm 5 mps 748 mmHg 47%
14:00 +35°C° 0 mm 6 mps 748 mmHg 48%
15:00 +34°C° 0 mm 5 mps 748 mmHg 51%
16:00 +34°C° 0 mm 5 mps 748 mmHg 55%
17:00 +33°C° 0 mm 4 mps 748 mmHg 58%
18:00 +30°C° 0 mm 3 mps 748 mmHg 66%
19:00 +29°C° 0 mm 2 mps 748 mmHg 73%
20:00 +27°C° 0 mm 1 mps 748 mmHg 81%
21:00 +27°C° 0 mm 1 mps 748 mmHg 81%
22:00 +26°C° 0 mm 1 mps 748 mmHg 82%
23:00 +26°C° 0 mm 1 mps 748 mmHg 83%

Day after tomorrow, 15 August, Saturday

Time Temperature Precipitation Wind Pressure Humidity
00:00 +26°C° 0 mm 1 mps 748 mmHg 83%
01:00 +25°C° 0 mm 1 mps 748 mmHg 83%
02:00 +25°C° 0 mm 1 mps 747 mmHg 83%
03:00 +25°C° 0 mm 2 mps 747 mmHg 83%
04:00 +25°C° 0 mm 2 mps 748 mmHg 84%
05:00 +25°C° 0 mm 3 mps 748 mmHg 84%
06:00 +27°C° 0 mm 3 mps 748 mmHg 78%
07:00 +29°C° 0 mm 3 mps 748 mmHg 71%
08:00 +30°C° 0 mm 3 mps 748 mmHg 65%
09:00 +33°C° 0 mm 4 mps 748 mmHg 59%
10:00 +34°C° 0 mm 4 mps 748 mmHg 53%
11:00 +36°C° 0 mm 5 mps 748 mmHg 47%
12:00 +36°C° 0 mm 5 mps 748 mmHg 47%
13:00 +36°C° 0 mm 5 mps 747 mmHg 47%
14:00 +36°C° 0 mm 5 mps 747 mmHg 47%
15:00 +35°C° 0 mm 5 mps 747 mmHg 50%
16:00 +34°C° 0 mm 5 mps 747 mmHg 53%
17:00 +34°C° 0 mm 5 mps 747 mmHg 56%
18:00 +31°C° 0 mm 3 mps 747 mmHg 65%
19:00 +29°C° 0 mm 2 mps 747 mmHg 74%
20:00 +27°C° 0 mm 1 mps 748 mmHg 83%
21:00 +27°C° 0 mm 1 mps 748 mmHg 83%
22:00 +26°C° 0 mm 1 mps 748 mmHg 83%
23:00 +26°C° 0 mm 1 mps 747 mmHg 82%

16 August, Sunday

Time Temperature Precipitation Wind Pressure Humidity
00:00 +26°C° 0 mm 1 mps 747 mmHg 83%
01:00 +25°C° 0 mm 1 mps 747 mmHg 83%
02:00 +25°C° 0 mm 1 mps 747 mmHg 83%
03:00 +25°C° 0 mm 2 mps 747 mmHg 84%
04:00 +25°C° 0 mm 2 mps 747 mmHg 84%
05:00 +25°C° 0 mm 2 mps 747 mmHg 85%
06:00 +26°C° 0 mm 2 mps 748 mmHg 76%
07:00 +28°C° 0 mm 2 mps 748 mmHg 67%
08:00 +30°C° 0 mm 3 mps 748 mmHg 59%
09:00 +33°C° 0 mm 3 mps 748 mmHg 52%
10:00 +35°C° 0 mm 4 mps 748 mmHg 45%
11:00 +36°C° 0 mm 4 mps 748 mmHg 38%
12:00 +36°C° 0 mm 5 mps 748 mmHg 38%
13:00 +36°C° 0 mm 5 mps 748 mmHg 39%
14:00 +36°C° 0 mm 6 mps 748 mmHg 39%
15:00 +36°C° 0 mm 5 mps 748 mmHg 41%
16:00 +35°C° 0 mm 5 mps 748 mmHg 43%
17:00 +34°C° 0 mm 4 mps 748 mmHg 46%
18:00 +31°C° 0 mm 3 mps 748 mmHg 56%
19:00 +29°C° 0 mm 2 mps 748 mmHg 65%
20:00 +26°C° 0 mm 1 mps 749 mmHg 75%
21:00 +26°C° 0 mm 1 mps 749 mmHg 74%
22:00 +26°C° 0 mm 1 mps 749 mmHg 73%
23:00 +25°C° 0 mm 1 mps 749 mmHg 72%

17 August, Monday

Time Temperature Precipitation Wind Pressure Humidity
00:00 +23°C° 0 mm 0 mps 748 mmHg 72%
01:00 +22°C° 0 mm 0 mps 748 mmHg 71%
02:00 +22°C° 0 mm 0 mps 748 mmHg 70%
03:00 +24°C° 0 mm 1 mps 748 mmHg 71%
04:00 +24°C° 0 mm 1 mps 748 mmHg 73%
05:00 +24°C° 0 mm 1 mps 749 mmHg 74%
06:00 +26°C° 0 mm 2 mps 749 mmHg 68%
07:00 +28°C° 0 mm 2 mps 749 mmHg 62%
08:00 +30°C° 0 mm 2 mps 749 mmHg 56%
09:00 +33°C° 0 mm 3 mps 749 mmHg 51%
10:00 +34°C° 0 mm 3 mps 749 mmHg 46%
11:00 +36°C° 0 mm 4 mps 749 mmHg 41%
12:00 +36°C° 0 mm 4 mps 749 mmHg 42%
13:00 +35°C° 0 mm 5 mps 748 mmHg 44%
14:00 +35°C° 0 mm 5 mps 748 mmHg 46%
15:00 +35°C° 0 mm 5 mps 748 mmHg 48%
16:00 +34°C° 0 mm 5 mps 748 mmHg 50%
17:00 +33°C° 0 mm 4 mps 748 mmHg 53%
18:00 +30°C° 0 mm 3 mps 748 mmHg 61%
19:00 +28°C° 0 mm 2 mps 748 mmHg 69%
20:00 +26°C° 0 mm 1 mps 749 mmHg 77%
21:00 +26°C° 0 mm 1 mps 749 mmHg 76%
22:00 +25°C° 0 mm 1 mps 749 mmHg 74%
23:00 +22°C° 0 mm 0 mps 749 mmHg 73%

18 August, Tuesday

Time Temperature Precipitation Wind Pressure Humidity
00:00 +24°C° 0 mm 1 mps 749 mmHg 75%
01:00 +24°C° 0 mm 1 mps 749 mmHg 77%
02:00 +24°C° 0 mm 2 mps 749 mmHg 78%
03:00 +24°C° 0 mm 2 mps 749 mmHg 80%
04:00 +24°C° 0 mm 2 mps 749 mmHg 81%
05:00 +24°C° 0 mm 2 mps 749 mmHg 82%
06:00 +26°C° 0 mm 3 mps 749 mmHg 75%
07:00 +28°C° 0 mm 3 mps 749 mmHg 67%
08:00 +29°C° 0 mm 3 mps 749 mmHg 60%
09:00 +32°C° 0 mm 4 mps 749 mmHg 55%
10:00 +33°C° 0 mm 4 mps 749 mmHg 50%
11:00 +34°C° 0 mm 5 mps 749 mmHg 45%
12:00 +34°C° 0 mm 5 mps 749 mmHg 46%
13:00 +34°C° 0 mm 5 mps 748 mmHg 47%
14:00 +34°C° 0 mm 6 mps 748 mmHg 47%
15:00 +33°C° 0 mm 5 mps 748 mmHg 52%
16:00 +32°C° 0 mm 5 mps 748 mmHg 57%
17:00 +32°C° 0 mm 5 mps 748 mmHg 61%
18:00 +29°C° 0 mm 3 mps 748 mmHg 69%
19:00 +27°C° 0 mm 2 mps 748 mmHg 77%
20:00 +25°C° 0 mm 1 mps 749 mmHg 85%
21:00 +25°C° 0 mm 1 mps 749 mmHg 84%
22:00 +25°C° 0 mm 1 mps 749 mmHg 84%
23:00 +25°C° 0 mm 1 mps 749 mmHg 83%
Show more